Location: Helstorf
(52.5868°N, 9.5862°E)
Time: 20:50:21
(UTC+00:00)

Geosat - Pass Details

Date: 15 May 2026
Orbit: 758 x 760 km, 108.0° (Epoch: 8 June)

Event Time Altitude Azimuth Distance (km) Brightness Sun altitude
Rises 22:24:36 0° 31° (NNE) 3,232 8.0 -17.4°
Reaches altitude 10° 22:26:53 10° 30° (NNE) 2,302 7.1 -17.5°
Maximum altitude 22:31:54 81° 304° (NW) 776 4.0 -17.7°
Enters shadow 22:35:38 18° 219° (SW) 1,791 5.5 -17.8°
